Weather History for Fort Myers Airport, FL

Change the Weather History Date:

Sunday, November 25, 2012

  Actual Average Record
Temperature  
Mean Temperature 60 °F -  
Max Temperature 73 °F 79 °F 89 °F (1986)
Min Temperature 48 °F 59 °F 34 °F (1970)
Degree Days  
Heating Degree Days 4    
Growing Degree Days 10 (Base 50)    
Moisture  
Dew Point 45 °F    
Average Humidity 63    
Maximum Humidity 90    
Minimum Humidity 31    
Precipitation  
Precipitation 0.00 in - - ()
Sea Level Pressure  
Sea Level Pressure 30.11 in    
Wind  
Wind Speed 3 mph (NNE)    
Max Wind Speed 7 mph    
Max Gust Speed -    
Visibility 10 miles    
Events      
Averages and records for this station are not official NWS values.
T = Trace of Precipitation, MM = Missing Value Source: NWS Daily Summary

Daily Weather History Graph

Daily Weather History Graph

Search for Another Location

Airport:

Trip Planner

Search our weather history database for the weather conditions in past years. The results will help you decide how hot, cold, wet, or windy it might be!

Date:

Astronomy

Nov. 25, 2012 Rise Set
Actual Time 6:54 AM EST 5:34 PM EST
Civil Twilight 6:29 AM EST 5:59 PM EST
Nautical Twilight 6:00 AM EST 6:27 PM EST
Astronomical Twilight 5:32 AM EST 6:55 PM EST
Moon 3:41 PM EST (11/25) 4:17 AM EST (11/25)
Length of Visible Light 11h 29m
Length of Day
10h 40m
Waxing Gibbous, 93% of the Moon is Illuminated
Nov 25
Waxing Gibbous
Nov 28
Full
Dec 6
Last Quarter
Dec 13
New
Dec 20
First Quarter

Hourly Weather History & Observations

Time (EST) Temp. Dew Point Humidity Pressure Visibility Wind Dir Wind Speed Gust Speed Precip Events Conditions
12:53 AM 54.0 °F 48.0 °F 80% 30.10 in 10.0 mi North 4.6 mph - N/A   Clear
1:53 AM 53.1 °F 46.9 °F 80% 30.09 in 10.0 mi North 4.6 mph - N/A   Clear
2:53 AM 52.0 °F 46.0 °F 80% 30.09 in 10.0 mi Calm Calm - N/A   Clear
3:53 AM 50.0 °F 46.9 °F 89% 30.08 in 10.0 mi Calm Calm - N/A   Clear
4:53 AM 48.9 °F 46.0 °F 90% 30.08 in 10.0 mi Calm Calm - N/A   Clear
5:53 AM 48.9 °F 46.0 °F 90% 30.09 in 10.0 mi North 3.5 mph - N/A   Clear
6:53 AM 48.9 °F 45.0 °F 86% 30.11 in 10.0 mi Calm Calm - N/A   Clear
7:53 AM 51.1 °F 46.0 °F 83% 30.14 in 10.0 mi North 3.5 mph - N/A   Clear
8:53 AM 57.0 °F 44.1 °F 62% 30.15 in 10.0 mi NE 6.9 mph - N/A   Clear
9:53 AM 62.1 °F 44.1 °F 52% 30.17 in 10.0 mi NE 5.8 mph - N/A   Clear
10:53 AM 66.0 °F 44.1 °F 45% 30.17 in 10.0 mi North 4.6 mph - N/A   Clear
11:53 AM 68.0 °F 44.1 °F 42% 30.14 in 10.0 mi East 3.5 mph - N/A   Clear
12:53 PM 70.0 °F 41.0 °F 35% 30.11 in 10.0 mi North 4.6 mph - N/A   Clear
1:53 PM 71.1 °F 41.0 °F 34% 30.09 in 10.0 mi North 6.9 mph - N/A   Clear
2:53 PM 73.0 °F 41.0 °F 31% 30.08 in 10.0 mi North 5.8 mph - N/A   Clear
3:53 PM 72.0 °F 41.0 °F 33% 30.07 in 10.0 mi NE 3.5 mph - N/A   Clear
4:53 PM 71.1 °F 39.9 °F 32% 30.08 in 10.0 mi NE 3.5 mph - N/A   Clear
5:53 PM 66.0 °F 43.0 °F 43% 30.09 in 10.0 mi North 3.5 mph - N/A   Clear
6:53 PM 61.0 °F 46.9 °F 60% 30.11 in 10.0 mi NW 3.5 mph - N/A   Clear
7:53 PM 59.0 °F 46.9 °F 64% 30.12 in 10.0 mi Calm Calm - N/A   Clear
8:53 PM 57.0 °F 48.0 °F 72% 30.14 in 10.0 mi Calm Calm - N/A   Clear
9:53 PM 55.0 °F 48.0 °F 77% 30.14 in 10.0 mi Calm Calm - N/A   Clear
10:53 PM 54.0 °F 48.0 °F 80% 30.14 in 10.0 mi Calm Calm - N/A   Clear
11:53 PM 52.0 °F 46.9 °F 83% 30.14 in 10.0 mi Calm Calm - N/A   Clear